Location: Bermeries
(50.2863°N, 3.7551°E)
Time: 06:50:07
(UTC+00:00)

Cosmos 2278 - Pass Details

Date: 23 May 2024
Orbit: 837 x 853 km, 71.1° (Epoch: 19 June)

Event Time Altitude Azimuth Distance (km) Brightness Sun altitude
Rises 00:32:28 0° 332° (NNW) 3,431 7.7 -18.2°
Reaches altitude 10° 00:34:59 10° 336° (NNW) 2,493 6.9 -18.1°
Maximum altitude 00:40:39 60° 56° (NE) 977 4.2 -17.9°
Drops below altitude 10° 00:46:17 10° 136° (SE) 2,480 5.8 -17.7°
Enters shadow 00:46:59 - 138° (SE) 2,739 6.1 -17.6°
